Location: Le Vaud
(46.4779°N, 6.2346°E)
Time: 20:38:51
(UTC+00:00)

STARLINK-1078 - Pass Details

Date: 18 February 2020
Orbit: 548 x 551 km, 53.0° (Epoch: 07 April)

Event Time Altitude Azimuth Distance (km) Brightness Sun altitude
Exits shadow 05:37:27 14° 266° (W) 1,606 5.3 -10.5°
Maximum altitude 05:40:54 50° 339° (NNW) 728 4.0 -9.9°
Drops below altitude 10° 05:45:05 10° 57° (ENE) 1,882 7.1 -9.2°
Sets 05:47:25 0° 62° (ENE) 2,783 8.2 -8.8°
